Time,TemperatureF,DewpointF,PressureIn,WindDirection,WindDirectionDegrees,WindSpeedMPH,WindSpeedGustMPH,Humidity,HourlyPrecipIn,Conditions,Clouds,dailyrainin,SolarRadiationWatts/m^2,SoftwareType,DateUTC
2013-01-15 00:02:00,31.0,-5.0,-100.00,South,173,7.0,21.0,20,0.00,,,0.00,0.000000,,2013-01-15 08:02:00,
2013-01-15 00:12:00,31.0,-5.0,-100.00,South,173,7.0,21.0,20,0.00,,,0.00,0.000000,,2013-01-15 08:12:00,
2013-01-15 00:43:00,30.0,-5.0,-100.00,WNW,301,5.0,17.0,21,0.00,,,0.00,0.000000,,2013-01-15 08:43:00,
2013-01-15 00:53:00,30.0,-5.0,-100.00,WNW,301,5.0,17.0,21,0.00,,,0.00,0.000000,,2013-01-15 08:53:00,
2013-01-15 01:02:00,30.0,-5.0,-100.00,WNW,301,5.0,17.0,21,0.00,,,0.00,0.000000,,2013-01-15 09:02:00,
2013-01-15 01:11:00,30.0,-5.0,-100.00,WNW,301,5.0,17.0,21,0.00,,,0.00,0.000000,,2013-01-15 09:11:00,
2013-01-15 01:42:00,30.0,-5.0,-100.00,North,359,7.0,16.0,21,0.00,,,-99.99,0.000000,,2013-01-15 09:42:00,
2013-01-15 01:52:00,30.0,-5.0,-100.00,North,359,7.0,16.0,21,0.00,,,-99.99,0.000000,,2013-01-15 09:52:00,
2013-01-15 02:02:00,30.0,-5.0,-100.00,North,359,7.0,16.0,21,0.00,,,-99.99,0.000000,,2013-01-15 10:02:00,
2013-01-15 02:11:00,30.0,-5.0,-100.00,North,359,7.0,16.0,21,0.00,,,-99.99,0.000000,,2013-01-15 10:11:00,
2013-01-15 02:33:00,32.0,-3.0,-100.00,North,349,6.0,16.0,21,0.00,,,0.00,0.000000,,2013-01-15 10:33:00,
2013-01-15 02:42:00,32.0,-3.0,-100.00,North,349,6.0,16.0,21,0.00,,,0.00,0.000000,,2013-01-15 10:42:00,
2013-01-15 02:52:00,32.0,-3.0,-100.00,North,349,6.0,16.0,21,0.00,,,0.00,0.000000,,2013-01-15 10:52:00,
2013-01-15 03:02:00,32.0,-3.0,-100.00,North,349,6.0,16.0,21,0.00,,,0.00,0.000000,,2013-01-15 11:02:00,
2013-01-15 03:12:00,32.0,-3.0,-100.00,North,349,6.0,16.0,21,0.00,,,0.00,0.000000,,2013-01-15 11:12:00,
2013-01-15 03:33:00,31.0,-3.0,-100.00,NNE,33,4.0,15.0,22,0.00,,,0.00,0.000000,,2013-01-15 11:33:00,
2013-01-15 03:43:00,31.0,-3.0,-100.00,NNE,33,4.0,15.0,22,0.00,,,0.00,0.000000,,2013-01-15 11:43:00,
2013-01-15 03:53:00,31.0,-3.0,-100.00,NNE,33,4.0,15.0,22,0.00,,,0.00,0.000000,,2013-01-15 11:53:00,
2013-01-15 04:02:00,31.0,-3.0,-100.00,NNE,33,4.0,15.0,22,0.00,,,0.00,0.000000,,2013-01-15 12:02:00,
2013-01-15 04:12:00,31.0,-3.0,-100.00,NNE,33,4.0,15.0,22,0.00,,,0.00,0.000000,,2013-01-15 12:12:00,
2013-01-15 04:33:00,31.0,-2.0,-100.00,North,355,6.0,18.0,24,0.00,,,0.00,0.000000,,2013-01-15 12:33:00,
2013-01-15 04:43:00,31.0,-2.0,-100.00,North,355,6.0,18.0,24,0.00,,,0.00,0.000000,,2013-01-15 12:43:00,
2013-01-15 04:53:00,31.0,-2.0,-100.00,North,355,6.0,18.0,24,0.00,,,0.00,0.000000,,2013-01-15 12:53:00,
2013-01-15 05:02:00,31.0,-2.0,-100.00,North,355,6.0,18.0,24,0.00,,,0.00,0.000000,,2013-01-15 13:02:00,
2013-01-15 05:12:00,31.0,-2.0,-100.00,North,355,6.0,18.0,24,0.00,,,0.00,0.000000,,2013-01-15 13:12:00,
2013-01-15 05:43:00,32.0,0.0,-100.00,NNW,346,5.0,17.0,25,0.00,,,0.00,0.000000,,2013-01-15 13:43:00,
2013-01-15 05:53:00,32.0,0.0,-100.00,NNW,346,5.0,17.0,25,0.00,,,0.00,0.000000,,2013-01-15 13:53:00,
2013-01-15 06:02:00,32.0,0.0,-100.00,NNW,346,5.0,17.0,25,0.00,,,0.00,0.000000,,2013-01-15 14:02:00,
2013-01-15 06:12:00,32.0,0.0,-100.00,NNW,346,5.0,17.0,25,0.00,,,0.00,0.000000,,2013-01-15 14:12:00,
2013-01-15 06:33:00,31.0,0.0,-100.00,NNW,331,3.0,11.0,26,0.00,,,0.00,0.000000,,2013-01-15 14:33:00,
2013-01-15 06:43:00,31.0,0.0,-100.00,NNW,331,3.0,11.0,26,0.00,,,0.00,0.000000,,2013-01-15 14:43:00,
2013-01-15 06:53:00,31.0,0.0,-100.00,NNW,331,3.0,11.0,26,0.00,,,0.00,0.000000,,2013-01-15 14:53:00,
2013-01-15 07:03:00,31.0,0.0,-100.00,NNW,331,3.0,11.0,26,0.00,,,0.00,0.000000,,2013-01-15 15:03:00,
2013-01-15 07:12:00,31.0,0.0,-100.00,NNW,331,3.0,11.0,26,0.00,,,0.00,0.000000,,2013-01-15 15:12:00,
2013-01-15 07:33:00,34.0,2.0,-100.00,NNE,12,12.0,15.0,25,0.00,,,0.00,3.000000,,2013-01-15 15:33:00,
2013-01-15 07:43:00,34.0,2.0,-100.00,NNE,12,12.0,15.0,25,0.00,,,0.00,3.000000,,2013-01-15 15:43:00,
2013-01-15 07:53:00,34.0,2.0,-100.00,NNE,12,12.0,15.0,25,0.00,,,0.00,3.000000,,2013-01-15 15:53:00,
2013-01-15 08:02:00,34.0,2.0,-100.00,NNE,12,12.0,15.0,25,0.00,,,0.00,3.000000,,2013-01-15 16:02:00,
2013-01-15 08:12:00,34.0,2.0,-100.00,NNE,12,12.0,15.0,25,0.00,,,0.00,3.000000,,2013-01-15 16:12:00,
2013-01-15 08:33:00,39.0,6.0,-100.00,NW,308,9.0,27.0,25,0.00,,,0.00,183.000000,,2013-01-15 16:33:00,
2013-01-15 08:43:00,39.0,6.0,-100.00,NW,308,9.0,27.0,25,0.00,,,0.00,183.000000,,2013-01-15 16:43:00,
2013-01-15 08:53:00,39.0,6.0,-100.00,NW,308,9.0,27.0,25,0.00,,,0.00,183.000000,,2013-01-15 16:53:00,
2013-01-15 09:03:00,39.0,6.0,-100.00,NW,308,9.0,27.0,25,0.00,,,0.00,183.000000,,2013-01-15 17:03:00,
2013-01-15 09:12:00,39.0,6.0,-100.00,NW,308,9.0,27.0,25,0.00,,,0.00,183.000000,,2013-01-15 17:12:00,
2013-01-15 09:43:00,42.0,7.0,-100.00,North,5,7.0,22.0,23,0.00,,,0.00,400.000000,,2013-01-15 17:43:00,
2013-01-15 09:53:00,42.0,7.0,-100.00,North,5,7.0,22.0,23,0.00,,,0.00,400.000000,,2013-01-15 17:53:00,
2013-01-15 10:02:00,42.0,7.0,-100.00,North,5,7.0,22.0,23,0.00,,,0.00,400.000000,,2013-01-15 18:02:00,
2013-01-15 10:12:00,42.0,7.0,-100.00,North,5,7.0,22.0,23,0.00,,,0.00,400.000000,,2013-01-15 18:12:00,
2013-01-15 10:33:00,46.0,8.0,-100.00,North,2,6.0,21.0,21,0.00,,,0.00,588.000000,,2013-01-15 18:33:00,
2013-01-15 10:43:00,46.0,8.0,-100.00,North,2,6.0,21.0,21,0.00,,,0.00,588.000000,,2013-01-15 18:43:00,
2013-01-15 10:53:00,46.0,8.0,-100.00,North,2,6.0,21.0,21,0.00,,,0.00,588.000000,,2013-01-15 18:53:00,
2013-01-15 11:03:00,46.0,8.0,-100.00,North,2,6.0,21.0,21,0.00,,,0.00,588.000000,,2013-01-15 19:03:00,
2013-01-15 11:12:00,46.0,8.0,-100.00,North,2,6.0,21.0,21,0.00,,,0.00,588.000000,,2013-01-15 19:12:00,
2013-01-15 11:43:00,46.0,8.0,-100.00,NNE,15,12.0,20.0,21,0.00,,,0.00,713.000000,,2013-01-15 19:43:00,
2013-01-15 11:53:00,46.0,8.0,-100.00,NNE,15,12.0,20.0,21,0.00,,,0.00,713.000000,,2013-01-15 19:53:00,
2013-01-15 12:03:00,46.0,8.0,-100.00,NNE,15,12.0,20.0,21,0.00,,,0.00,713.000000,,2013-01-15 20:03:00,
2013-01-15 12:12:00,46.0,8.0,-100.00,NNE,15,12.0,20.0,21,0.00,,,0.00,713.000000,,2013-01-15 20:12:00,
2013-01-15 12:33:00,48.0,10.0,-100.00,NNE,13,12.0,23.0,21,0.00,,,0.00,759.000000,,2013-01-15 20:33:00,
2013-01-15 12:43:00,48.0,10.0,-100.00,NNE,13,12.0,23.0,21,0.00,,,0.00,759.000000,,2013-01-15 20:43:00,
2013-01-15 12:53:00,48.0,10.0,-100.00,NNE,13,12.0,23.0,21,0.00,,,0.00,759.000000,,2013-01-15 20:53:00,
2013-01-15 13:02:00,48.0,10.0,-100.00,NNE,13,12.0,23.0,21,0.00,,,0.00,759.000000,,2013-01-15 21:02:00,
2013-01-15 13:12:00,48.0,10.0,-100.00,NNE,13,12.0,23.0,21,0.00,,,0.00,759.000000,,2013-01-15 21:12:00,
2013-01-15 13:43:00,51.0,11.0,-100.00,NE,42,11.0,22.0,20,0.00,,,0.00,755.000000,,2013-01-15 21:43:00,
2013-01-15 13:53:00,51.0,11.0,-100.00,NE,42,11.0,22.0,20,0.00,,,0.00,755.000000,,2013-01-15 21:53:00,
2013-01-15 14:02:00,51.0,11.0,-100.00,NE,42,11.0,22.0,20,0.00,,,0.00,755.000000,,2013-01-15 22:02:00,
2013-01-15 14:12:00,51.0,11.0,-100.00,NE,42,11.0,22.0,20,0.00,,,0.00,755.000000,,2013-01-15 22:12:00,
2013-01-15 14:43:00,50.0,12.0,-100.00,NNE,16,10.0,25.0,21,0.00,,,0.00,660.000000,,2013-01-15 22:43:00,
2013-01-15 14:53:00,50.0,12.0,-100.00,NNE,16,10.0,25.0,21,0.00,,,0.00,660.000000,,2013-01-15 22:53:00,
2013-01-15 15:02:00,50.0,12.0,-100.00,NNE,16,10.0,25.0,21,0.00,,,0.00,660.000000,,2013-01-15 23:02:00,
2013-01-15 15:12:00,50.0,12.0,-100.00,NNE,16,10.0,25.0,21,0.00,,,0.00,660.000000,,2013-01-15 23:12:00,
2013-01-15 15:43:00,49.0,11.0,-100.00,North,355,5.0,25.0,21,0.00,,,0.00,499.000000,,2013-01-15 23:43:00,
2013-01-15 15:53:00,49.0,11.0,-100.00,North,355,5.0,25.0,21,0.00,,,0.00,499.000000,,2013-01-15 23:53:00,
2013-01-15 16:02:00,49.0,11.0,-100.00,North,355,5.0,25.0,21,0.00,,,0.00,499.000000,,2013-01-16 00:02:00,
2013-01-15 16:12:00,49.0,11.0,-100.00,North,355,5.0,25.0,21,0.00,,,0.00,499.000000,,2013-01-16 00:12:00,
2013-01-15 16:43:00,46.0,10.0,-100.00,NE,34,13.0,24.0,23,0.00,,,0.00,35.000000,,2013-01-16 00:43:00,
2013-01-15 16:53:00,46.0,10.0,-100.00,NE,34,13.0,24.0,23,0.00,,,0.00,35.000000,,2013-01-16 00:53:00,
2013-01-15 17:02:00,46.0,10.0,-100.00,NE,34,13.0,24.0,23,0.00,,,0.00,35.000000,,2013-01-16 01:02:00,
2013-01-15 17:12:00,46.0,10.0,-100.00,NE,34,13.0,24.0,23,0.00,,,0.00,35.000000,,2013-01-16 01:12:00,
2013-01-15 17:33:00,41.0,10.0,-100.00,NNW,344,5.0,26.0,27,0.00,,,0.00,13.000000,,2013-01-16 01:33:00,
2013-01-15 17:43:00,41.0,10.0,-100.00,NNW,344,5.0,26.0,27,0.00,,,0.00,13.000000,,2013-01-16 01:43:00,
2013-01-15 17:53:00,41.0,10.0,-100.00,NNW,344,5.0,26.0,27,0.00,,,0.00,13.000000,,2013-01-16 01:53:00,
2013-01-15 18:02:00,41.0,10.0,-100.00,NNW,344,5.0,26.0,27,0.00,,,0.00,13.000000,,2013-01-16 02:02:00,
2013-01-15 18:12:00,41.0,10.0,-100.00,NNW,344,5.0,26.0,27,0.00,,,0.00,13.000000,,2013-01-16 02:12:00,
2013-01-15 18:43:00,39.0,9.0,-100.00,North,10,8.0,16.0,29,0.00,,,0.00,0.000000,,2013-01-16 02:43:00,
2013-01-15 18:53:00,39.0,9.0,-100.00,North,10,8.0,16.0,29,0.00,,,0.00,0.000000,,2013-01-16 02:53:00,
2013-01-15 19:02:00,39.0,9.0,-100.00,North,10,8.0,16.0,29,0.00,,,0.00,0.000000,,2013-01-16 03:02:00,
2013-01-15 19:11:00,39.0,9.0,-100.00,North,10,8.0,16.0,29,0.00,,,0.00,0.000000,,2013-01-16 03:11:00,
2013-01-15 19:33:00,40.0,11.0,-100.00,NNW,348,7.0,19.0,30,0.00,,,0.00,0.000000,,2013-01-16 03:33:00,
2013-01-15 19:43:00,40.0,11.0,-100.00,NNW,348,7.0,19.0,30,0.00,,,0.00,0.000000,,2013-01-16 03:43:00,
2013-01-15 19:53:00,40.0,11.0,-100.00,NNW,348,7.0,19.0,30,0.00,,,0.00,0.000000,,2013-01-16 03:53:00,
2013-01-15 20:02:00,40.0,11.0,-100.00,NNW,348,7.0,19.0,30,0.00,,,0.00,0.000000,,2013-01-16 04:02:00,
2013-01-15 20:12:00,40.0,11.0,-100.00,NNW,348,7.0,19.0,30,0.00,,,0.00,0.000000,,2013-01-16 04:12:00,
2013-01-15 20:33:00,42.0,10.0,-100.00,North,0,7.0,14.0,27,0.00,,,0.00,0.000000,,2013-01-16 04:33:00,
2013-01-15 20:42:00,42.0,10.0,-100.00,North,0,7.0,14.0,27,0.00,,,0.00,0.000000,,2013-01-16 04:42:00,
2013-01-15 20:52:00,42.0,10.0,-100.00,North,0,7.0,14.0,27,0.00,,,0.00,0.000000,,2013-01-16 04:52:00,
2013-01-15 21:03:00,42.0,10.0,-100.00,North,0,7.0,14.0,27,0.00,,,0.00,0.000000,,2013-01-16 05:03:00,
2013-01-15 21:12:00,42.0,10.0,-100.00,North,0,7.0,14.0,27,0.00,,,0.00,0.000000,,2013-01-16 05:12:00,
2013-01-15 21:33:00,43.0,11.0,-100.00,North,4,5.0,18.0,27,0.00,,,0.00,0.000000,,2013-01-16 05:33:00,
2013-01-15 21:42:00,43.0,11.0,-100.00,North,4,5.0,18.0,27,0.00,,,0.00,0.000000,,2013-01-16 05:42:00,
2013-01-15 21:53:00,43.0,11.0,-100.00,North,4,5.0,18.0,27,0.00,,,0.00,0.000000,,2013-01-16 05:53:00,
2013-01-15 22:02:00,43.0,11.0,-100.00,North,4,5.0,18.0,27,0.00,,,0.00,0.000000,,2013-01-16 06:02:00,
2013-01-15 22:11:00,43.0,11.0,-100.00,North,4,5.0,18.0,27,0.00,,,0.00,0.000000,,2013-01-16 06:11:00,
2013-01-15 22:33:00,43.0,11.0,-100.00,North,7,7.0,16.0,27,0.00,,,0.00,0.000000,,2013-01-16 06:33:00,
2013-01-15 22:43:00,43.0,11.0,-100.00,North,7,7.0,16.0,27,0.00,,,0.00,0.000000,,2013-01-16 06:43:00,
2013-01-15 22:53:00,43.0,11.0,-100.00,North,7,7.0,16.0,27,0.00,,,0.00,0.000000,,2013-01-16 06:53:00,
2013-01-15 23:02:00,43.0,11.0,-100.00,North,7,7.0,16.0,27,0.00,,,0.00,0.000000,,2013-01-16 07:02:00,
2013-01-15 23:11:00,43.0,11.0,-100.00,North,7,7.0,16.0,27,0.00,,,0.00,0.000000,,2013-01-16 07:11:00,
2013-01-15 23:33:00,42.0,11.0,-100.00,North,1,8.0,17.0,28,0.00,,,0.00,0.000000,,2013-01-16 07:33:00,
2013-01-15 23:42:00,42.0,11.0,-100.00,North,1,8.0,17.0,28,0.00,,,0.00,0.000000,,2013-01-16 07:42:00,
2013-01-15 23:52:00,42.0,11.0,-100.00,North,1,8.0,17.0,28,0.00,,,0.00,0.000000,,2013-01-16 07:52:00,